Location: Hampton Hill
(51.4167°N, 0.3500°W)
Time: 12:25:27
(UTC+00:00)

Daily predictions for brighter satellites

Satellite Brightness Start Highest point End
(mag) Time Altitude Azimuth Time Altitude Azimuth Time Altitude Azimuth
ARIANE 5 R/B 3.6 20:27:42 10° SE 20:31:41 33° ENE 20:35:40 10° N
Cosmos 1271 Rocket 3.5 20:28:50 10° N 20:32:36 39° ENE 20:36:22 10° SE
USA 276 2.5 20:32:05 10° W 20:35:10 49° SSW 20:38:13 10° ESE
NOSS 3-4 (A) 4.2 20:30:24 10° WSW 20:36:15 59° NW 20:42:41 10° NE
NOSS 3-4 (C) 4.2 20:30:30 10° WSW 20:36:21 59° NW 20:42:47 10° NE
BREEZE-M DEB (TANK) 2.8 20:33:49 10° W 20:36:27 42° SSW 20:42:14 10° SE
Cosmos 1697 Rocket 4.4 20:32:54 10° NW 20:37:46 30° WSW 20:42:37 10° SSW
SPOT 1/Viking Rocket 3.7 20:32:39 10° SSE 20:37:49 68° ENE 20:43:01 10° N
Cosmos 1076 Rocket 3.5 20:35:02 10° S 20:39:23 77° E 20:43:46 10° NNE
SAR-Lupe-4 4.5 20:35:59 10° N 20:39:30 54° WNW 20:43:00 10° SSW
Cosmos 1151 Rocket 4.1 20:35:42 10° N 20:39:34 30° ENE 20:43:26 10° SE
ATLAS 5 CENTAUR R/B 3.9 20:36:08 10° NW 20:40:10 25° NNE 20:44:48 10° ENE
OBJECT-B 3.7 20:40:26 10° SW 20:42:22 15° W 20:44:19 10° NW
ATLAS 2AS CENTAUR R/B 3.2 20:37:08 10° SW 20:45:05 83° NW 20:52:47 10° NE
Cosmos 773 Rocket 4.4 20:42:49 10° SSW 20:48:00 70° WNW 20:53:11 10° NNE
ATLAS 3B R/B 3.3 20:41:52 10° NW 20:48:47 59° SW 20:55:57 10° SSE
Cosmos 1833 Rocket 3.9 20:44:42 10° SW 20:50:10 49° NW 20:55:39 10° NNE
Terra 2.8 20:48:05 10° SE 20:52:19 33° ENE 20:56:33 10° N
SPOT 5 3.2 20:50:48 10° SE 20:54:53 42° ENE 20:59:03 10° N
Cosmos 2082 Rocket 2.5 20:51:05 10° SW 20:56:43 76° WNW 21:02:26 10° NNE
Cosmos 2056 Rocket 4.3 20:52:15 10° NNW 20:57:22 41° NE 21:02:09 11° SE
Cosmos 1092 Rocket 4.1 20:51:18 10° S 20:57:26 62° E 21:03:41 10° NNE
Meteor 2-19 Rocket 4.4 20:51:32 10° S 20:57:32 69° E 21:03:34 10° NNE
Cosmos 1633 3.2 20:55:10 10° SSW 20:58:43 57° WNW 21:02:19 10° N
BREEZE-M DEB (TANK) 2.2 20:59:10 10° WSW 21:01:40 37° S 21:03:12 12° E
Cosmos 332 Rocket 4.1 20:59:04 10° NNW 21:03:56 70° WSW 21:08:48 10° SSE
Cosmos 2360 Rocket 2.8 20:59:39 10° NNW 21:05:05 46° NE 21:10:08 12° ESE
ERS-1 Rocket 3.2 21:00:35 11° SE 21:05:19 56° ENE 21:10:15 10° N
Cosmos 158 Rocket 4.0 21:03:15 10° SSW 21:08:23 72° ESE 21:13:42 10° NNE
ATLAS CENTAUR R/B 4.5 21:03:18 10° WNW 21:09:56 69° NNE 21:28:08 10° ESE
Cosmos 2026 Rocket 4.1 21:04:12 10° S 21:10:25 63° E 21:16:36 10° NNE
GP-B 3.1 21:07:18 10° N 21:11:45 66° E 21:16:10 10° S
ISS -2.0 21:11:09 10° W 21:13:50 22° SW 21:15:56 13° S
Cosmos 2333 Rocket 3.4 21:10:23 10° NNW 21:15:29 33° NE 21:20:32 10° ESE
Meteor 1-26 Rocket 4.4 21:12:00 10° NNW 21:18:00 83° W 21:23:49 10° S
Nadezhda 4 Rocket 4.5 21:11:55 10° SSW 21:18:02 64° WNW 21:24:17 10° N
Cosmos 1371 Rocket 4.3 21:13:39 10° NNW 21:19:00 63° ENE 21:23:22 15° SE
Spot 2 Rocket 3.6 21:14:48 10° SSE 21:19:54 83° WSW 21:25:04 10° NNW
Cosmos 1812 3.2 21:16:39 10° N 21:20:23 45° ENE 21:23:04 17° SE
Cosmos 220 Rocket 4.1 21:18:11 10° NNW 21:22:31 70° ENE 21:25:50 17° SE
Cosmos 2112 Rocket 4.5 21:18:15 10° S 21:23:12 41° ESE 21:28:07 10° NE
Cosmos 1680 Rocket 3.8 21:18:37 10° S 21:23:39 47° ESE 21:28:41 10° NE
CZ-2C R/B 3.7 21:19:15 10° NNE 21:23:50 88° WNW 21:28:18 10° SSW
Cosmos 1980 Rocket 4.1 21:21:33 10° NW 21:25:59 24° WSW 21:30:24 10° SSW
Okean 3 Rocket 3.8 21:24:58 13° S 21:28:53 54° E 21:33:18 10° NNE
RESURS DK-1 4.1 21:25:14 10° WSW 21:29:07 37° NW 21:33:01 10° NNE
Cosmos 292 Rocket 4.5 21:25:39 10° NNW 21:30:13 43° ENE 21:33:40 17° SE
USA 245 4.4 21:25:39 10° S 21:30:35 52° WSW 21:34:36 10° NNW
USA 234 3.7 21:24:44 10° E 21:31:12 64° NNE 21:37:40 10° WNW
Cosmos 2237 Rocket 4.3 21:31:38 10° NNW 21:35:35 19° NNE 21:39:30 10° ENE
Cosmos 2322 Rocket 2.3 21:31:46 10° NNW 21:37:26 76° WSW 21:41:46 17° SSE
Resurs 01 Rocket 3.9 21:38:55 10° SW 21:42:16 21° W 21:45:38 10° NW
Cosmos 1408 Rocket 4.1 21:40:12 20° SSE 21:42:46 40° E 21:46:51 10° NNE
Cosmos 2151 4.3 21:40:09 10° SW 21:44:10 41° WNW 21:48:15 10° N
Gblst 52 Del rocket 4.5 21:42:04 10° W 21:48:03 90° S 21:54:56 10° E
Meteor 2-14 Rocket 4.5 21:43:59 13° S 21:49:28 68° E 21:55:34 10° NNE
Cosmos 1553 Rocket 3.9 21:44:37 10° N 21:50:44 88° W 21:55:36 17° S
Cosmos 2084 3.8 21:48:52 14° S 21:51:57 38° SE 21:55:50 10° ENE
Gbstr 26 Del rocket 3.9 21:50:42 10° W 21:53:57 27° SSW 21:55:26 21° S
CZ-4B DEB 4.1 21:53:29 29° SSE 21:54:56 81° ENE 21:58:07 10° NNW
Meteor 2-3 Rocket 4.4 21:49:39 10° SSW 21:55:13 56° WNW 22:00:54 10° N
Cosmos 2266 Rocket 4.4 21:53:29 20° SSE 21:57:29 46° E 22:03:24 10° NNE
Cosmos 2219 Rocket 2.8 21:53:35 10° NNW 21:59:02 48° NE 22:02:58 18° ESE
Cosmos 1862 3.3 21:57:03 22° S 21:59:30 68° E 22:03:28 10° NNE
Cosmos 1624 Rocket 4.1 21:54:19 10° NNW 21:59:31 74° WSW 22:02:57 22° SSE
Cosmos 1782 4.2 21:58:39 10° NNW 22:02:19 34° W 22:05:38 12° SSW
Cosmos 2228 Rocket 3.9 21:59:47 10° N 22:03:55 38° ENE 22:06:05 23° SE
Cosmos 1515 Rocket 3.5 21:59:43 10° N 22:04:11 84° ENE 22:06:43 25° SSE
H-2A R/B 3.7 22:01:00 10° NNE 22:05:08 53° E 22:07:15 26° SSE
SL-16 R/B 3.2 22:00:32 10° NW 22:05:46 39° WSW 22:09:55 15° S
NOSS 2-1 (E) 3.3 22:05:22 34° SSE 22:06:03 38° SE 22:09:18 10° NE
NOSS 3-1 (C) 4.1 22:00:46 10° NW 22:08:01 84° NE 22:14:30 19° SE
ARIANE 5 R/B 3.9 22:04:24 12° SSW 22:08:06 35° W 22:12:13 10° NNW
Cosmos 2333 4.2 22:03:05 10° NNW 22:08:43 73° ENE 22:12:13 24° SE
Cosmos 1420 Rocket 4.0 22:05:11 10° NNW 22:10:33 87° WSW 22:13:43 25° SSE
USA 276 4.1 22:08:48 10° WSW 22:10:46 16° SW 22:10:46 16° SW
COSMOS 2455 3.7 22:09:10 23° SSE 22:11:28 30° ESE 22:16:37 10° NE
COSMOS 2428 3.2 22:08:12 10° NNW 22:13:47 51° NE 22:17:35 20° ESE
Meteor 2-6 Rocket 4.4 22:09:47 10° NNW 22:15:09 62° W 22:18:53 20° S
CZ-4C R/B 4.4 22:10:03 10° NW 22:15:29 30° N 22:21:52 10° ENE
Cosmos 1151 Rocket 4.4 22:13:13 10° NNW 22:17:09 34° W 22:20:31 13° SSW
Cosmos 1655 Rocket 4.1 22:12:44 20° S 22:17:17 71° E 22:23:40 10° NNE
Cosmos 1766 Rocket 4.4 22:14:51 10° SSW 22:19:07 49° WNW 22:23:23 10° N
S3M 4.1 22:14:36 10° NNW 22:21:01 80° W 22:25:25 22° S
USA 229 DEB 4.1 22:15:02 10° NW 22:22:15 72° NE 22:28:17 18° ESE
USA 229 4.1 22:15:08 10° NW 22:22:21 72° NE 22:28:23 18° ESE
Spot 4 4.4 22:21:45 25° SE 22:24:13 48° ENE 22:28:53 10° N
ATLAS 5 CENTAUR R/B 2.7 22:20:37 10° NW 22:25:47 56° NE 22:30:39 16° ESE
Cosmos 1174 3.2 22:23:00 10° NW 22:25:59 59° SW 22:26:29 49° S
Terra 2.8 22:26:49 18° SSW 22:30:00 39° W 22:34:29 10° NNW
Cosmos 1452 Rocket 3.5 22:24:48 10° NNW 22:30:05 75° ENE 22:32:49 29° SE
COSMOS 2487 3.4 22:31:49 29° E 22:31:49 29° E 22:34:41 10° NE
SPOT 5 4.4 22:30:02 12° SW 22:33:10 25° W 22:36:50 10° NW
ALOS 2 3.6 22:33:57 24° ESE 22:35:55 36° ENE 22:39:57 10° N
ATLAS 2AS CENTAUR R/B 4.4 22:29:47 10° W 22:37:04 39° NNW 22:44:03 10° NE
USA 267 3.4 22:32:01 10° ENE 22:38:20 48° SE 22:44:38 10° SSW
Meteor 1-27 Rocket 3.8 22:35:28 10° NNW 22:41:07 80° W 22:44:15 28° S
SL-27 R/B 2.9 22:39:50 24° SW 22:41:52 63° WNW 22:45:27 10° NNE
NOSS 3-1 (A) 4.0 22:35:27 10° NW 22:42:43 85° NE 22:48:48 21° SE
Cosmos 2360 Rocket 3.1 22:43:51 10° NW 22:49:02 38° WSW 22:51:53 23° SSW
IRIDIUM 104 4.3 22:44:29 10° N 22:49:45 86° W 22:52:18 31° S
NOSS 2-1 (C) 3.1 22:48:04 18° SW 22:50:22 70° NW 22:53:53 10° NE
Cosmos 1805 Rocket 3.6 22:49:13 38° SSE 22:50:44 63° E 22:55:08 10° NNE
Cosmos 1110 Rocket 4.2 22:50:47 10° NNW 22:56:08 68° ENE 22:58:40 31° SE
Meteor 1-20 Rocket 4.4 22:54:51 32° SSE 22:57:17 58° E 23:02:52 10° NNE
Cosmos 1980 4.5 22:52:10 10° NNW 22:57:39 46° NE 23:01:19 20° ESE
NOSS 2-1 (D) 3.4 22:55:30 15° WSW 22:58:05 60° NW 23:01:36 10° NE
IRIDIUM 114 4.4 22:53:39 10° N 22:58:52 73° W 23:01:25 31° S
Cosmos 2333 Rocket 2.4 22:54:33 10° NW 23:00:07 60° WSW 23:02:38 32° S
Cosmos 1833 4.3 22:56:03 14° SW 23:01:03 79° WNW 23:06:53 10° NNE
Cosmos 1331 Rocket 4.1 22:56:18 10° NNW 23:01:33 68° ENE 23:03:58 32° SE
Cosmos 1500 Rocket 3.9 22:59:40 28° SSW 23:01:54 62° WNW 23:06:19 10° N
Cosmos 972 Rocket 3.9 23:07:28 30° SSW 23:10:12 88° ESE 23:15:13 10° NNE
Cosmos 2322 4.1 23:04:45 10° NW 23:10:19 54° WSW 23:12:44 32° S
COBE Rocket 4.1 23:09:07 35° SSW 23:10:54 58° W 23:15:34 10° NNW
NOSS 0 Rocket 4.0 23:06:22 10° NNW 23:12:38 79° NE 23:16:01 29° SE
USA 234 3.2 23:10:02 24° SE 23:14:12 72° SSW 23:20:47 10° WNW
Cosmos 468 4.4 23:16:08 36° S 23:18:15 72° ESE 23:23:29 10° NNE
Cosmos 2297 Rocket 3.5 23:17:11 22° ESE 23:18:21 23° ESE 23:22:42 10° NE
Cosmos 2322 Rocket 4.4 23:17:41 10° WNW 23:20:30 14° W 23:23:19 10° SW
Cosmos 2237 Rocket 2.5 23:15:12 10° NNW 23:20:51 61° NE 23:24:02 26° SE
Lacrosse 5 3.6 23:21:59 18° ESE 23:21:59 18° ESE 23:24:24 10° E
Cosmos 2084 Rocket 3.6 23:18:09 10° NW 23:22:18 68° NE 23:24:07 33° ESE
NOSS 2-2 (E) 4.5 23:18:29 10° NW 23:23:29 71° NE 23:28:32 19° SE
Meteor 1-18 Rocket 4.3 23:18:28 10° N 23:24:23 79° ENE 23:26:56 35° SSE
Cosmos 1500 3.5 23:26:57 48° ESE 23:27:25 52° E 23:31:10 10° NNE
Cosmos 2285 Rocket 4.4 23:23:43 10° NNW 23:29:47 51° WSW 23:32:33 31° SSW
Cosmos 1470 Rocket 4.4 23:29:03 33° ESE 23:29:53 36° E 23:33:51 10° NNE
Cosmos 2227 Rocket 3.6 23:28:53 20° ESE 23:30:04 22° ESE 23:34:17 10° NE
Sich 1 3.1 23:28:46 40° SSW 23:30:15 70° WNW 23:34:36 10° N
Okean 1 3.3 23:26:56 10° NNW 23:30:58 78° W 23:31:46 55° S
Meteor 1-25 Rocket 4.2 23:30:16 33° SSW 23:32:52 84° WNW 23:38:28 10° NNE
Cosmos 1633 Rocket 3.1 23:33:06 48° SSE 23:34:07 66° E 23:38:28 10° NNE
Cosmos 494 Rocket 3.9 23:33:17 39° SSW 23:35:13 79° ESE 23:40:22 10° NNE
Cosmos 1666 Rocket 3.5 23:37:07 48° S 23:38:19 86° E 23:42:47 10° NNE
Cosmos 1048 Rocket 4.0 23:39:39 31° SW 23:42:08 75° WNW 23:47:17 10° NNE
Cosmos 2219 Rocket 3.0 23:37:48 10° NW 23:42:52 36° WSW 23:44:40 29° SW
Meteor 1-19 Rocket 4.4 23:41:49 10° NNW 23:47:24 61° W 23:49:32 36° SSW
NOSS 2-2 (C) 4.3 23:42:45 10° NW 23:47:44 81° NE 23:52:23 21° SE
SL-16 R/B 3.3 23:42:41 10° NNW 23:48:03 41° NE 23:52:42 13° ESE
SL-08 R/B 4.4 23:45:16 35° S 23:48:05 83° E 23:54:17 10° NNE
Cosmos 1602 4.4 23:52:57 37° WSW 23:53:56 46° WNW 23:57:41 10° N
